Regional Weather Roundup
Issued by NWS

Home | Current Version | Previous Version | Text Only | Print | Product List | Glossary On
Versions: 1 2 3 4 5 6 7 8 9 10 11 12 13 14 15 16 17 18 19 20 21 22 23 24 25 26 27 28 29 30 31 32 33 34 35 36 37 38 39 40 41 42 43 44 45 46 47 48 49 50
000
ASUS44 KFWD 301315
RWRTX
NORTH TEXAS HOURLY WEATHER ROUNDUP
NATIONAL WEATHER SERVICE FORT WORTH TX
800 AM CDT SAT AUG 30 2014

NOTE: "FAIR" INDICATES FEW OR NO CLOUDS BELOW 12,000 FEET WITH NO
SIGNIFICANT WEATHER AND/OR OBSTRUCTIONS TO VISIBILITY.

TXZ118-119-301400-
DALLAS/FORT WORTH METROPLEX

CITY           SKY/WX    TMP DP  RH WIND       PRES   REMARKS
DFW AIRPORT    PTSUNNY   77  71  82 S3        29.95R
DALLAS LOVE    PTSUNNY   77  71  82 S5        29.95R
FTW MEACHAM    SUNNY     76  71  85 S5        29.95R
DAL-EXECUTIVE  CLOUDY    76  71  85 SE6       29.96R
FTW-ALLIANCE   MOSUNNY   74  72  93 CALM      29.95R
FTW-NAS-JRB    MOSUNNY   78  69  73 S5        29.99R
FTW-SPINKS     MOSUNNY   73  72  94 CALM      29.97R
ARLINGTON      SUNNY     75  70  84 CALM      29.96R
GRAND PRAIRIE  SUNNY     75  70  83 SE3       29.97R
MESQUITE       CLOUDY    72  72 100 E3        29.96R
LANCASTER      CLOUDY    72  70  94 CALM      29.97R FOG
$$

TXZ091>094-102>105-117-120-121-131>134-301400-
NORTH CENTRAL TEXAS

CITY           SKY/WX    TMP DP  RH WIND       PRES   REMARKS
SHRMAN/DENISON SUNNY     74  69  85 S5        29.98R
GAINESVILLE    MOSUNNY   73  71  91 CALM      29.99R
BOWIE          SUNNY     72  71  98 CALM      29.98R
BRIDGEPORT     SUNNY     72  72 100 CALM      29.98R
DECATUR        MOSUNNY   74  71  91 CALM      29.97S
DENTON         SUNNY     75  71  87 S3        29.96R
MCKINNEY       SUNNY     73  71  93 SE5       29.96R
GREENVILLE     CLOUDY    73  70  88 CALM      29.98R
ROCKWALL       CLOUDY    73  72  96 SE5       29.96R
TERRELL        PTSUNNY   74  73  97 E5        29.97R
WAXAHACHIE     CLOUDY    73  71  94 SE3       29.98R
CLEBURNE       SUNNY     73  73 100 CALM      29.97S
GRANBURY       SUNNY     76  71  86 CALM      29.97S
$$

TXZ083>090-098>101-113>116-127>130-139>142-154-155-301400-
WESTERN NORTH TEXAS

CITY           SKY/WX    TMP DP  RH WIND       PRES   REMARKS
WICHITA FALLS  SUNNY     71  69  93 CALM      29.97R FOG
WF-KICKAPOO    SUNNY     72  70  93 CALM      29.98R
VERNON         CLEAR     71  69  93 CALM      29.99S
ABILENE        CLEAR     73  69  87 SE5       30.00R
ABILENE-DYESS  CLEAR     72  69  90 SW5       29.99R
BRECKENRIDGE   CLEAR     74  72  92 SW3       29.96S FOG
GRAHAM         SUNNY     72  69  89 CALM      29.96R
MINERAL WELLS  SUNNY     73  71  93 SE5       29.95R
STEPHENVILLE   SUNNY     72  69  92 CALM      30.00R
COMANCHE         N/A     72  72 100 CALM      29.98S
BROWNWOOD      MOCLDY    73  72  94 CALM      29.99R
COLEMAN        CLEAR     72  69  92 CALM      29.99S
BRADY          CLEAR     72  70  94 CALM      29.99R
$$

TXZ143>147-156>162-174-175-301400-
CENTRAL TEXAS

CITY           SKY/WX    TMP DP  RH WIND       PRES   REMARKS
WACO           PTSUNNY   74  72  93 SE5       29.95R
WACO-TSTC      SUNNY     73  72  94 SE6       29.95R
WACO-MCGREGOR  CLOUDY    72  68  88 CALM      29.97R
HILLSBORO      CLOUDY    73  70  91 CALM      29.97R
CORSICANA      PTSUNNY   74  71  91 SE6       29.98R
MEXIA          CLOUDY    72  71  99 CALM      29.96R
HEARNE           N/A     73  72  95 CALM      29.96R
CAMERON        CLOUDY    73  72  96 CALM      29.95R
TEMPLE         CLOUDY    73  68  83 CALM      29.95S
KILLEEN        PTSUNNY   75  72  88 CALM      29.96R
KILLEEN-SKYLRK CLOUDY    75  68  78 CALM      29.94S
FORT HOOD      CLOUDY    78  72  81 CALM      29.96R
GATESVILLE     CLOUDY    73  73 100 CALM      29.99R
LAMPASAS       SUNNY     76  73  92 CALM      29.96S
$$

TXZ095>097-106>112-122>126-135>138-148>153-164>167-301400-
EAST TEXAS

CITY           SKY/WX    TMP DP  RH WIND       PRES   REMARKS
PARIS          SUNNY     72  64  78 SE6       29.99R
SULPHUR SPRNGS PTSUNNY   75  71  88 S5        29.99S
MOUNT PLEASANT PTSUNNY   71  71 100 CALM      29.99S
GILMER         CLOUDY    73  73 100 CALM      29.99R FOG
MINEOLA        PTSUNNY   70  70 100 CALM      29.98R
TYLER          MOSUNNY   74  71  91 E6        29.97R
LONGVIEW       CLOUDY    74  70  87 E6        29.96R
MARSHALL       PTSUNNY   76  73  89 CALM      29.99S
ATHENS         CLOUDY    72  72 100 CALM      29.96R
PALESTINE      MOSUNNY   73  73  99 CALM      29.97R
JACKSONVILLE   CLOUDY    73  72  96 E3        29.99R FOG
HENDERSON      CLOUDY    75  71  87 CALM      29.97S
NACOGDOCHES    MOSUNNY   73  72  94 CALM      29.96R
LUFKIN         CLOUDY    76  72  87 N3        29.95R
$$

SUPPLEMENTAL OBSERVATIONS (CENTRAL)

CITY           SKY/WX    TMP DP  RH WIND       PRES   REMARKS
LAKE TEXOMA      N/A     73  68  83 CALM        N/A
CADDO GRASSLND   N/A     73  70  88 S5          N/A
PAT MAYSE LAKE   N/A     73  70  88 E3          N/A
GREENVILLE       N/A     73  68  83 S3          N/A
CEDAR HILL       N/A     75  72  88 SE3         N/A
MCGREGOR         N/A     73  70  88 SW1         N/A
$$

SUPPLEMENTAL OBSERVATIONS (WEST)

CITY           SKY/WX    TMP DP  RH WIND       PRES   REMARKS
MILLERS CREEK    N/A     73  68  83 W1          N/A
LBJ GRASSLAND    N/A     73  68  83 SE5         N/A
HAMBY            N/A     73  70  88 S2          N/A
IVIE RESERVOIR   N/A     73  68  83 SE2         N/A
COLORADO BEND    N/A     75  70  83 CALM        N/A
$$

SUPPLEMENTAL OBSERVATIONS (EAST)

CITY           SKY/WX    TMP DP  RH WIND       PRES   REMARKS
TEXARKANA        N/A     75  72  88 CALM        N/A
LINDEN           N/A     73  70  88 CALM        N/A
CADDO LAKE       N/A     75  73  94 CALM        N/A
HENDERSON        N/A     75  70  83 E3          N/A
LUFKIN           N/A     73  70  88 MISG        N/A
$$

SUPPLEMENTAL OBSERVATIONS ARE A COLLECTION OF AUTOMATED INSTRUMENTS
THAT ARE MAINTAINED BY A VARIETY OF FEDERAL AND STATE AGENCIES.
CERTAIN ELEMENTS...SUCH AS HUMIDITY VALUES AND SUSTAINED WIND
SPEEDS...MAY BE APPROXIMATED.




USA.gov is the U.S. government's official web portal to all federal, state and local government web resources and services.